Location: Wildcat Hills Observatory
(41.6350°N, 103.6812°W)
Time: 13:06:29
(UTC-07:00)

Daily predictions for brighter satellites

Satellite Brightness Start Highest point End
(mag) Time Altitude Azimuth Time Altitude Azimuth Time Altitude Azimuth
Atlas Centaur 2 4.2 17:21:52 10° WSW 17:25:28 18° SSW 17:28:36 10° SSE
Cosmos 2333 Rocket 2.9 17:20:38 10° SSE 17:25:38 34° ESE 17:30:39 10° NE
Cosmos 1763 Rocket 3.5 17:21:25 10° S 17:26:38 72° ESE 17:31:48 10° NNE
CORIOLIS 4.1 17:24:37 10° SSE 17:29:57 83° ENE 17:35:21 10° NNW
Cosmos 1743 Rocket 3.6 17:30:48 10° S 17:35:12 63° E 17:39:40 10° NNE
Tsikada Rocket 4.3 17:31:55 10° S 17:38:17 80° W 17:44:44 10° N
Cosmos 2219 Rocket 2.3 17:33:22 10° S 17:38:52 57° ESE 17:44:22 10° NNE
Cosmos 1328 Rocket 3.5 17:35:59 10° N 17:40:27 78° E 17:44:53 10° SSE
BREEZE-M DEB (TANK) 1.8 17:38:58 10° SW 17:42:18 50° SSE 17:43:55 15° ENE
Cosmos 1340 Rocket 4.3 17:40:40 10° SE 17:43:18 17° E 17:45:23 12° NE
Cosmos 2278 Rocket 2.6 17:38:46 10° N 17:44:07 40° ENE 17:49:27 10° SE
MONITOR-E 4.1 17:41:38 10° SSE 17:44:46 68° ENE 17:47:57 10° N
Cosmos 1908 3.8 17:41:05 10° NNW 17:44:56 62° W 17:48:46 10° S
Cosmos 2151 3.5 17:42:35 10° SSE 17:46:25 35° E 17:50:16 10° NNE
Cosmos 540 Rocket 4.0 17:42:28 10° SSE 17:47:12 38° ESE 17:51:58 10° NE
Cosmos 1515 Rocket 3.5 17:42:58 10° N 17:47:26 68° E 17:51:51 10° SSE
Cosmos 332 Rocket 3.8 17:44:39 10° SSW 17:49:28 83° ESE 17:54:20 10° NNE
SKYMED 2 3.6 17:46:34 10° NNE 17:50:52 57° E 17:55:07 10° S
SL-14 R/B 3.7 17:48:17 10° SSE 17:51:55 38° E 17:55:37 10° NNE
Cosmos 1674 3.6 17:49:30 10° SSW 17:53:12 51° W 17:56:59 10° N
Cosmos 1626 4.3 17:52:27 10° ESE 17:52:37 10° ESE 17:52:37 10° ESE
USA 215 3.3 17:48:49 10° ESE 17:55:16 63° NE 18:01:44 10° NW
Cosmos 1844 3.7 17:49:31 10° NNW 17:55:20 83° ENE 18:01:07 10° SSE
Cosmos 1151 Rocket 3.0 17:52:34 10° N 17:56:48 57° E 18:01:00 10° SSE
Cosmos 1484 Rocket 2.8 17:53:23 10° SSE 17:57:17 89° WSW 18:01:17 10° NNW
Thor Agena Rocket 4.1 17:53:57 10° N 17:59:09 61° WNW 18:04:15 10° SSW
MSX 4.4 17:56:06 10° S 18:01:44 61° WSW 18:07:25 10° NNW
Cosmos 1500 Rocket 3.5 17:57:51 10° S 18:02:11 89° ENE 18:06:33 10° N
Cosmos 1125 Rocket 3.4 17:59:15 10° NNW 18:04:27 67° ENE 18:09:36 10° SSE
Cosmos 1634 Rocket 4.0 17:58:42 10° N 18:04:57 87° E 18:11:06 10° S
BREEZE M DEB (TANK) 1.9 18:02:35 10° NW 18:05:17 36° NNE 18:05:48 31° NE
NOAA 12 4.2 18:00:49 10° SE 18:05:50 49° ENE 18:10:54 10° N
COSMOS 2428 3.6 18:00:48 10° SW 18:06:20 50° WNW 18:11:53 10° NNE
Cosmos 1300 2.6 18:05:37 10° N 18:09:28 74° E 18:13:17 10° SSE
Cosmos 2237 Rocket 2.2 18:04:03 10° S 18:09:34 61° ESE 18:14:53 11° NNE
ALOS 3.2 18:06:22 10° ESE 18:10:07 25° ENE 18:13:53 10° NNE
Cosmos 1726 2.0 18:07:24 10° N 18:11:10 81° E 18:14:57 10° S
Cosmos 44 3.5 18:06:19 10° SSW 18:11:31 60° ESE 18:15:10 19° NE
SL-16 R/B 3.1 18:09:41 10° SSE 18:14:24 28° ESE 18:16:18 23° ENE
Spot 2 Rocket 4.3 18:11:24 10° ESE 18:15:38 28° ENE 18:19:53 10° N
Lacrosse 5 rocket 1.8 18:14:57 10° NNW 18:18:30 37° NE 18:19:24 32° ENE
Sich 1 4.2 18:15:06 10° SE 18:17:57 23° ESE 18:17:57 23° ESE
CZ-4 R/B 4.5 18:16:47 10° SW 18:19:19 17° W 18:21:51 10° NW
OTV 4 1.9 18:16:43 10° WSW 18:19:23 31° SSW 18:20:41 21° SE
Cosmos 371 Rocket 3.6 18:15:04 10° SSW 18:19:52 69° WNW 18:24:40 10° NNE
Cosmos 2297 4.1 18:17:49 10° N 18:23:12 40° ENE 18:27:01 18° ESE
NOSS 0 Rocket 4.0 18:20:26 10° SSW 18:26:40 85° WNW 18:32:50 10° NNE
SL-19 R/B 4.4 18:25:19 10° SE 18:31:06 53° ENE 18:36:34 10° N
Resurs 01 Rocket 2.2 18:31:55 35° ENE 18:31:55 35° ENE 18:35:39 10° N
Cosmos 2084 3.8 18:29:02 10° SW 18:32:51 53° NW 18:34:43 26° NNE
Meteor 1-28 Rocket 3.6 18:30:29 10° N 18:34:09 61° WNW 18:37:48 10° SSW
Meteor 1-11 4.2 18:30:47 10° S 18:36:27 88° W 18:42:15 10° N
Aureole 2 Rocket 2.5 18:34:01 10° SSW 18:37:37 74° ESE 18:38:34 48° NE
COSMO-SKYMED 1 3.8 18:34:43 10° N 18:38:49 41° WNW 18:42:54 10° SW
CENTAUR R/B 3.8 18:33:45 10° WSW 18:39:26 36° NW 18:45:39 11° NNE
Cosmos 44 Rocket 4.1 18:34:36 10° SW 18:39:36 52° NW 18:43:11 18° NNE
Lacrosse 5 3.9 18:39:07 10° NW 18:42:06 15° N 18:43:59 13° NNE
Cosmos 1707 Rocket 3.5 18:38:27 10° N 18:42:44 56° E 18:46:59 10° SSE
Cosmos 1461 3.7 18:44:02 10° S 18:47:02 34° SSE 18:47:02 34° SSE
SJ-6B 3.0 18:44:43 10° S 18:48:45 75° WSW 18:52:53 10° NNW
FengYun 1-2 T 4.1 18:46:50 10° SSE 18:52:21 68° ENE 18:57:52 10° N
Cosmos 1666 Rocket 3.6 18:48:58 10° S 18:52:39 56° SE 18:52:39 56° SE
Cosmos 1980 4.4 18:51:29 10° SW 18:57:00 52° WNW 19:01:38 15° NNE
Cosmos 2279 Rocket 4.4 18:51:00 10° NNW 18:57:08 63° W 19:03:14 10° S
Cosmos 1900 4.5 18:52:22 10° NNW 18:56:53 53° NE 18:56:53 53° NE
Cosmos 2058 4.0 18:53:20 10° SSW 18:57:16 44° WNW 19:01:13 10° N
H-2A ROCKET BODY 4.0 18:38:40 10° WSW 18:58:53 36° SSW 19:02:29 22° SE
Cosmos 1703 3.6 19:00:31 10° SSW 19:04:22 63° W 19:04:47 58° NW
Cosmos 304 Rocket 3.7 19:00:51 10° SSW 19:05:40 81° WNW 19:06:43 55° N
FENGYUN 3A 3.5 19:00:53 10° SSE 19:06:14 84° ENE 19:11:38 10° NNW
Cosmos 2333 Rocket 3.6 19:04:40 10° WSW 19:09:49 36° WNW 19:14:23 13° N
Nadezhda 4 Rocket 4.0 19:11:33 10° S 19:17:48 83° W 19:24:09 10° N
Cosmos 2219 Rocket 4.2 19:18:45 10° WSW 19:23:11 23° NW 19:27:37 10° N
Cosmos 2278 Rocket 4.0 19:23:10 10° NW 19:28:01 30° WSW 19:32:51 10° SSW
Cosmos 1626 4.2 19:25:32 10° SSW 19:27:22 24° SW 19:27:22 24° SW
Cosmos 1092 Rocket 3.9 19:28:50 10° S 19:35:09 85° W 19:36:36 57° N
USA 215 4.4 19:32:58 13° SSE 19:38:26 39° SW 19:44:31 10° WNW
ALOS 3.8 19:43:07 10° SSW 19:47:22 34° W 19:51:38 10° NNW
Cosmos 2237 Rocket 4.3 19:49:47 10° WSW 19:54:03 22° NW 19:56:45 16° NNW
Lacrosse 5 rocket 4.1 19:54:18 10° WNW 19:55:10 15° WNW 19:55:10 15° WNW
SL-16 R/B 3.2 19:52:57 10° SW 19:58:16 42° WNW 19:58:16 42° WNW
Resurs 01 Rocket 4.1 20:09:28 19° WNW 20:09:28 19° WNW 20:11:33 10° NW
